COSMOS 249 DEB, 6764

Orbit data source: Space-Track

COSMOS 249 DEB, 6764 is space debris in LEO originally from a launch on Sun, 20 Oct 1968 UTC launched from the Tyuratam Missile And Space Complex (TTMTR). Debris objects in space refer to the collection of defunct objects orbiting the Earth. Examples of debris include non-operational satellites, rocket bodies, and fragments generated from explosions, collisions, or faulty payload assembly.

Loading next visibility...
Identifier
6764, 1968-091CK
Orbit
LEO
Country
Flag of CISCIS
Related business
Manufacturer
Unknown
Mission
Spacecraft
Bus & Motor
Unknown
Mass
Unknown
Launch date (UTC)
1968-10-20 (58 years ago)
Launch vehicle
Unknown
Launch site
Tyuratam Missile And Space Complex (TTMTR)
Object type
Payload
Rocket body
Debris
Shape & HBR
Unknown shape, 0.1 m
Radar Cross Section
Medium (>0.1 m² and <1 m²)

Expand to show TLE details & history
Last TLE update: 17 hours ago

TLE from 17 hours ago
0 COSMOS 249 DEB
1 06764U 68091CK  26219.72876483 -.00000407  00000-0 -92479-3 0  9999
2 06764  62.3432 304.8954 0765316   5.8274  68.9463 12.38211816731552
Epoch: 2026-08-07T17:29Z
TLE epoch observation values (Epoch: 2026-08-07T17:29:25.281Z)
Latitude
61.70617°
Longitude
161.90645°
Altitude
1,348.441 km
Speed
7.269 km/s
True Right ascension
01h 22m 02s
True Declination
61° 34' 24"
Sunlit
Object was in daylight at epoch
Visualization orbit readout
Latitude
Unknown
Longitude
Unknown
Altitude
Unknown
Speed
Unknown
Apparent Right ascension
Unknown
Apparent Declination
Unknown
Sunlit
N/A
Visualization observer readout
Local Sidereal Time
00:23:55
Azimuth
Unknown
Elevation
Unknown
Doppler factor
Unknown
Orbital elements
Apogee altitude
2,117.139 km
Perigee altitude
909.265 km
Semi-major axis
7,891.339 km
Eccentricity
0.07653
Inclination
62.3432°
RAAN
304.8954°
Arg. of periapsis
5.8274°
True anomaly
77.39078°
Mean anomaly
68.9463°
Eccentric anomaly
73.14282°
Mean motion
3.09612 °/min
Orbital period
116.27 mins
BSTAR
-0.00092479
Loading maneuver chart data...
Computing Atmospheric mass density...

Documentation

Showing up to 5 results
|